Regional Weather Roundup
Issued by NWS

Home | Current Version | Previous Version | Graphics & Text | Print | Product List | Glossary Off
Versions: 1 2 3 4 5 6 7 8 9 10 11 12 13 14 15 16 17 18 19 20 21 22 23 24 25 26 27 28 29 30 31 32 33 34 35 36 37 38 39 40 41 42 43 44 45 46 47 48 49 50

000
ASUS43 KDMX 032107
RWRIA

WEATHER ROUNDUP FOR IOWA
NATIONAL WEATHER SERVICE DES MOINES IA
400 PM CDT SUN MAY 03 2015

NOTE: "FAIR" INDICATES FEW OR NO CLOUDS BELOW 12,000 FEET WITH NO
SIGNIFICANT WEATHER AND/OR OBSTRUCTIONS TO VISIBILITY.

* - THESE STATIONS ARE NOT NWS STATIONS...THUS NOT UNDER NWS
QUALITY CONTROL.  THEY ALSO DO NOT REPORT WEATHER SUCH
AS PRECIPITATION OR FOG.

IAZ001>003-012>014-020>022-031>034-043>046-032200-
   NORTHWEST IOWA

CITY           SKY/WX    TMP DP  RH WIND       PRES   REMARKS
CARROLL *      SUNNY     82  59  44 SW15G23   29.75F HX  82
CHEROKEE *     MOSUNNY   82  54  36 CALM      29.73F HX  81
DENISON *      SUNNY     84  61  45 SW10G17   29.72F HX  84
LE MARS *      SUNNY     86  54  32 W6        29.74S HX  84
ORANGE CITY *  SUNNY     82  52  34 N6        29.75R HX  81
SHELDON *      SUNNY     84  54  34 N3        29.74S HX  83
SIOUX CITY     MOSUNNY   84  56  38 N8        29.72F HX  83
SPENCER        MOSUNNY   85  52  32 VRB6      29.74S HX  83
STORM LAKE *   MOSUNNY   84  55  37 SW8G14    29.76S HX  83
$$

IAZ055>058-069>071-079>083-090>094-032200-
   SOUTHWEST IOWA

CITY           SKY/WX    TMP DP  RH WIND       PRES   REMARKS
ATLANTIC *     SUNNY     79  61  53 S10       29.77S HX  80
AUDUBON *      SUNNY     81  63  54 S15       29.78S HX  82
CLARINDA *     SUNNY     82  61  47 S16G22    29.79S HX  83
COUNCIL BLFS * SUNNY     77  64  65 SE7       29.76S
CRESTON *      SUNNY     79  59  50 S22G29    29.79S HX  80
HARLAN  *      SUNNY     81  61  50 S15       29.79R HX  81
LAMONI         MOSUNNY   83  59  44 S16G25    29.80F HX  83
RED OAK *      MOSUNNY   77  63  61 S16       29.76F
SHENANDOAH *   SUNNY     82  61  47 S17       29.77S HX  83
$$

IAZ047>049-059>061-072>074-084-032200-
   CENTRAL IOWA

CITY           SKY/WX    TMP DP  RH WIND       PRES   REMARKS
AMES           SUNNY     80  59  48 S15       29.77F HX  81
ANKENY *       SUNNY     82  61  47 SW14G20   29.77F HX  83
CHARITON *     SUNNY     79  59  50 S18G28    29.81S HX  80
DES MOINES     MOSUNNY   84  58  40 S15G23    29.78F HX  83
GRINNELL*      SUNNY     81  57  44 S14G22    29.81F HX  81
KNOXVILLE *    SUNNY     82  57  42 S14G25    29.79R HX  82
MARSHALLTOWN   SUNNY     80  59  48 S14G22    29.78F HX  81
PELLA *        SUNNY     81  63  54 S12       29.81S HX  82
PERRY *          N/A     82  57  42 S15G23    29.76F HX  82
$$

IAZ004>006-015-016-023>025-035-036-032200-
   NORTH CENTRAL IOWA

CITY           SKY/WX    TMP DP  RH WIND       PRES   REMARKS
ALGONA *       PTSUNNY   84  55  37 S15G22    29.75S HX  83
CLARION *      SUNNY     86  55  35 SW18      29.76S HX  84
ESTHERVILLE    MOSUNNY   84  49  29 MISG      29.75S HX  82
FORT DODGE *   MOSUNNY   82  59  44 S12       29.77S HX  82
MASON CITY     MOSUNNY   84  53  34 SW12G18   29.77F HX  82
FOREST CITY *  SUNNY     82  50  32 S16G22    29.75F HX  81
IOWA FALLS *     N/A     79  57  47 S13G18    29.79F HX  80
$$

IAZ007>011-017>019-026>030-037>042-050>054-066-032200-
   NORTHEAST IOWA

CITY           SKY/WX    TMP DP  RH WIND       PRES   REMARKS
CEDAR RAPIDS   SUNNY     79  63  57 SE8       29.82F HX  80
CHARLES CITY * SUNNY     82  57  42 S13G21    29.79F HX  82
CLINTON *      PTSUNNY   68  61  77 E15       29.90S
DECORAH *      SUNNY     81  52  36 SW6G14    29.79F HX  80
DUBUQUE        MOSUNNY   69  59  70 S12       29.87S
MONTICELLO *   PTSUNNY   73  63  68 S9G16     29.85F
OELWEIN *      SUNNY     81  57  44 SW15G22   29.82F HX  81
WATERLOO       MOSUNNY   80  60  50 SE10      29.79F HX  81
$$

IAZ064-065-067-068-078-032200-
   EAST CENTRAL IOWA

CITY           SKY/WX    TMP DP  RH WIND       PRES   REMARKS
DAVENPORT      MOSUNNY   74  60  61 E6        29.87F
IOWA CITY      SUNNY     82  58  43 S18       29.84F HX  82
MT. PLEASANT * MOSUNNY   84  54  34 S18G24    29.85S HX  83
MUSCATINE *    PTSUNNY   82  57  42 SW18G28   29.84S HX  82
QUAD CITIES    MOSUNNY   82  55  39 SW18G24   29.84F HX  81
$$

IAZ062-063-075>077-085>089-095>099-032200-
   SOUTHEAST IOWA

CITY           SKY/WX    TMP DP  RH WIND       PRES   REMARKS
BURLINGTON     MOSUNNY   84  57  39 SW20G25   29.86F HX  83
FAIRFIELD *    MOSUNNY   82  55  39 S18       29.83F HX  82
FORT MADISON * SUNNY     82  55  39 S15G22    29.87F HX  82
KEOKUK *       MOSUNNY   82  57  42 S18G25    29.86F HX  82
OSKALOOSA *      N/A     84  54  34 SW20      29.81F HX  83
CENTERVILLE *  SUNNY     77  59  53 S21       29.85S
OTTUMWA        SUNNY     83  56  39 SW21G31   29.81F HX  82
WASHINGTON *   SUNNY     84  61  45 S18G28    29.83F HX  84
$$

ABBREVIATIONS USED IN REMARKS
   TC - TEMPERATURES IN CELSIUS
  WCI - WIND CHILL INDEX
   HX - HEAT INDEX
  VSB - VISIBILITY
$$




USA.gov is the U.S. government's official web portal to all federal, state and local government web resources and services.